THORAD AGENA D DEB, 4918

Orbit data source: Space-Track

THORAD AGENA D DEB, 4918 is space debris in SSO originally from a launch on Wed, 08 Apr 1970 UTC launched from the Air Force Western Test Range (AFWTR). Debris objects in space refer to the collection of defunct objects orbiting the Earth. Examples of debris include non-operational satellites, rocket bodies, and fragments generated from explosions, collisions, or faulty payload assembly.

Loading next visibility...
Identifier
4918, 1970-025FQ
Orbit
SSO
Country
Flag of USUS
Related business
Manufacturer
Unknown
Mission
Spacecraft
Bus & Motor
Unknown
Mass
Unknown
Launch date (UTC)
1970-04-08 (56 years ago)
Launch vehicle
Unknown
Launch site
Air Force Western Test Range (AFWTR)
Object type
Payload
Rocket body
Debris
Shape & HBR
Unknown shape, 0.1 m
Radar Cross Section
Small (<0.1 m²)

Expand to show TLE details & history
Last TLE update: 12 hours ago

TLE from 12 hours ago
0 THORAD AGENA D DEB
1  4918U 70025FQ  26122.88905935  .00000367  00000-0  81190-3 0  9994
2  4918  99.4795 268.3157 0163530 152.3635 208.6299 13.29585251706619
Epoch: 2026-05-02T21:20Z
TLE epoch observation values (Epoch: 2026-05-02T21:20:14.727Z)
Latitude
-0.00008°
Longitude
87.45386°
Altitude
1,259.598 km
Speed
7.173 km/s
True Right ascension
17h 53m 15s
True Declination
0° 00' 00"
Sunlit
Object was in full shadow at epoch
Visualization orbit readout
Latitude
Unknown
Longitude
Unknown
Altitude
Unknown
Speed
Unknown
Apparent Right ascension
Unknown
Apparent Declination
Unknown
Sunlit
N/A
Visualization observer readout
Local Sidereal Time
17:24:46
Azimuth
Unknown
Elevation
Unknown
Doppler factor
Unknown
Orbital elements
Apogee altitude
1,268.681 km
Perigee altitude
1,022.608 km
Semi-major axis
7,523.782 km
Eccentricity
0.01635
Inclination
99.4795°
RAAN
268.3157°
Arg. of periapsis
152.3635°
True anomaly
207.74788°
Mean anomaly
208.6299°
Eccentric anomaly
208.18732°
Mean motion
3.32574 °/min
Orbital period
108.25 mins
BSTAR
0.0008119
Loading maneuver chart data...
Computing Atmospheric mass density...

Documentation

Showing up to 5 results
|